KF7K Weather Reports


Display with metric or nautical units.
time (UTC)temp
F
wind
direction
speed
MPH
gust
MPH
rain 1hr
in
rain 24hr
in
rain mn
in
humidity
%
barometer
mb
20260507111803 45 302 1.0 2.0 0.00 0.00 0.00 52 1019.0
20260507110924 44 305 1.0 3.0 0.00 0.00 0.00 54 1018.9
20260507110003 44 306 0.0 2.0 0.00 0.00 0.00 55 1019.0
20260507105403 44 293 0.0 1.0 0.00 0.00 0.00 60 1018.9
20260507104503 44 293 0.0 1.0 0.00 0.00 0.00 60 1019.1
20260507103602 44 293 0.0 1.0 0.00 0.00 0.00 60 1019.3
20260507102723 44 293 0.0 1.0 0.00 0.00 0.00 58 1019.5
20260507101803 44 293 0.0 1.0 0.00 0.00 0.00 57 1019.5
20260507100902 45 293 0.0 1.0 0.00 0.00 0.00 53 1019.7
20260507100003 46 293 0.0 1.0 0.00 0.00 0.00 51 1019.6
20260507095423 45 0 0.0 0.0 0.00 0.00 0.00 50 1019.5
20260507094504 46 293 0.0 1.0 0.00 0.03 0.00 50 1019.5
20260507093603 46 314 0.0 1.0 0.00 0.13 0.00 50 1019.6
20260507092702 45 305 0.0 1.0 0.00 0.17 0.00 50 1019.7
20260507091823 45 299 0.0 1.0 0.00 0.18 0.00 52 1019.7
20260507090903 44 293 0.0 1.0 0.00 0.18 0.00 55 1019.8
20260507090025 44 4 0.0 1.0 0.00 0.18 0.00 55 1020.0
20260507085403 44 75 0.0 1.0 0.00 0.18 0.00 54 1020.0
20260507084503 45 0 0.0 0.0 0.00 0.18 0.00 52 1020.0
20260507083602 45 0 0.0 0.0 0.00 0.18 0.00 52 1020.1
20260507082703 45 0 0.0 0.0 0.00 0.18 0.00 54 1020.2
20260507081802 44 0 0.0 0.0 0.00 0.18 0.00 55 1020.2
20260507080902 44 0 0.0 0.0 0.00 0.18 0.00 52 1020.2
20260507080003 46 0 0.0 0.0 0.00 0.18 0.00 51 1020.3
20260507075402 46 0 0.0 0.0 0.00 0.18 0.00 50 1020.3
20260507074503 47 0 0.0 0.0 0.00 0.19 0.00 49 1020.4
20260507073602 48 0 0.0 0.0 0.00 0.19 0.00 47 1020.5
20260507072702 48 0 0.0 0.0 0.00 0.19 0.00 46 1020.3
20260507071802 48 0 0.0 0.0 0.00 0.19 0.00 45 1020.3
20260507070902 48 0 0.0 0.0 0.00 0.19 0.00 45 1020.3
20260507070024 48 0 0.0 0.0 0.00 0.19 0.00 45 1020.3
20260507065403 48 0 0.0 0.0 0.00 0.19 0.00 45 1020.3
20260507064503 48 0 0.0 0.0 0.00 0.19 0.00 45 1020.3
20260507063602 49 0 0.0 0.0 0.00 0.19 0.00 44 1020.2
20260507062703 49 0 0.0 0.0 0.00 0.19 0.00 44 1020.3
20260507061802 49 51 0.0 1.0 0.00 0.19 0.00 44 1020.3
20260507060902 49 0 0.0 0.0 0.00 0.19 0.00 44 1020.2
20260507060004 49 56 0.0 1.0 0.00 0.19 0.00 44 1020.2
20260507055403 49 0 0.0 0.0 0.00 0.19 0.19 45 1020.3
20260507054524 49 0 0.0 0.0 0.00 0.19 0.19 45 1020.2
20260507053602 49 0 0.0 0.0 0.00 0.19 0.19 45 1020.2
20260507052723 49 0 0.0 0.0 0.00 0.19 0.19 44 1020.2
20260507051823 50 0 0.0 0.0 0.00 0.19 0.19 44 1020.2
20260507050902 51 0 0.0 0.0 0.00 0.19 0.19 43 1020.2
20260507050003 51 56 0.0 1.0 0.00 0.19 0.19 40 1020.1
20260507045423 51 62 0.0 1.0 0.00 0.19 0.19 40 1020.1
20260507044503 52 81 0.0 1.0 0.00 0.19 0.19 40 1020.0
20260507043602 52 101 0.0 2.0 0.00 0.19 0.19 39 1020.0
20260507042702 52 135 0.0 1.0 0.00 0.19 0.19 39 1020.0
20260507041803 52 135 0.0 1.0 0.00 0.19 0.19 38 1020.0
20260507040903 52 0 0.0 0.0 0.00 0.19 0.19 39 1020.0
20260507040004 52 0 0.0 0.0 0.00 0.19 0.19 38 1020.1
20260507035423 52 0 0.0 0.0 0.00 0.19 0.19 38 1020.0
20260507034503 53 0 0.0 0.0 0.00 0.19 0.19 37 1019.8
20260507033603 54 0 0.0 0.0 0.00 0.19 0.19 36 1019.7
20260507032703 54 116 0.0 2.0 0.00 0.19 0.19 36 1019.5
20260507031802 54 0 0.0 0.0 0.00 0.19 0.19 36 1019.6
20260507030903 55 52 0.0 1.0 0.00 0.19 0.19 34 1019.4
20260507030003 56 301 0.0 1.0 0.00 0.19 0.19 33 1019.4
20260507025426 56 301 0.0 1.0 0.00 0.19 0.19 31 1019.3
20260507024503 57 301 0.0 1.0 0.00 0.19 0.19 30 1019.3
20260507023603 57 0 0.0 0.0 0.00 0.19 0.19 27 1019.1
20260507022703 58 301 0.0 1.0 0.00 0.19 0.19 27 1019.1
20260507021823 59 301 0.0 1.0 0.00 0.19 0.19 26 1019.1
20260507020902 60 301 0.0 1.0 0.00 0.19 0.19 25 1019.1
20260507020003 62 301 1.0 4.0 0.00 0.19 0.19 24 1019.1
20260507015403 63 298 1.0 4.0 0.00 0.19 0.19 23 1019.1
20260507014503 63 301 1.0 5.0 0.00 0.19 0.19 23 1019.2
20260507013603 64 298 1.0 4.0 0.00 0.19 0.19 22 1019.2
20260507012703 64 299 1.0 4.0 0.00 0.19 0.19 23 1019.2
20260507011803 64 309 0.0 3.0 0.00 0.19 0.19 23 1019.1
20260507010903 63 302 2.0 6.0 0.00 0.19 0.19 23 1019.2
20260507010024 63 305 2.0 5.0 0.00 0.19 0.19 24 1019.1
20260507005424 62 305 3.0 6.0 0.00 0.19 0.19 24 1019.1
20260507004503 62 305 3.0 9.0 0.00 0.19 0.19 25 1019.1
20260507003603 62 306 4.0 8.0 0.00 0.19 0.19 25 1019.1
20260507002704 62 305 5.0 9.0 0.00 0.19 0.19 25 1019.0
20260507001803 62 302 4.0 9.0 0.00 0.19 0.19 25 1018.9
20260507000903 62 303 4.0 8.0 0.00 0.19 0.19 25 1018.8
20260507000024 62 305 5.0 10.0 0.00 0.19 0.19 25 1018.8
20260506235402 62 303 5.0 10.0 0.00 0.19 0.19 25 1018.7
20260506234503 62 300 5.0 9.0 0.00 0.19 0.19 24 1018.6
20260506233603 62 301 5.0 11.0 0.00 0.19 0.19 26 1018.7
20260506232703 62 303 7.0 16.0 0.00 0.19 0.19 26 1018.6
20260506231802 63 302 4.0 9.0 0.00 0.19 0.19 26 1018.5
20260506230902 63 306 3.0 8.0 0.00 0.19 0.19 26 1018.6
20260506230024 62 308 5.0 11.0 0.00 0.19 0.19 26 1018.6
20260506225423 62 308 5.0 11.0 0.00 0.19 0.19 25 1018.6
20260506224503 62 306 5.0 10.0 0.00 0.19 0.19 26 1018.5
20260506223602 62 301 7.0 13.0 0.00 0.19 0.19 26 1018.7
20260506222702 62 307 6.0 13.0 0.00 0.19 0.19 26 1018.4
20260506221802 62 303 5.0 11.0 0.00 0.19 0.19 26 1018.6
20260506220924 61 305 6.0 13.0 0.00 0.19 0.19 26 1018.8
20260506220003 62 305 4.0 12.0 0.00 0.19 0.19 26 1018.7
20260506215403 62 303 6.0 13.0 0.00 0.19 0.19 26 1018.8
20260506214503 62 308 5.0 10.0 0.00 0.19 0.19 26 1018.7
20260506213602 62 311 4.0 9.0 0.00 0.19 0.19 26 1018.9
20260506212724 61 303 4.0 9.0 0.00 0.19 0.19 28 1018.9
20260506211802 62 300 4.0 12.0 0.00 0.19 0.19 28 1018.7
20260506210902 61 303 4.0 11.0 0.00 0.19 0.19 26 1018.6
20260506210003 62 304 1.0 7.0 0.00 0.19 0.19 29 1018.8
20260506205403 60 290 3.0 11.0 0.00 0.19 0.19 27 1018.7
20260506204503 60 300 4.0 10.0 0.00 0.19 0.19 25 1018.8
20260506203602 60 303 4.0 11.0 0.00 0.19 0.19 26 1018.7
20260506202723 61 283 2.0 10.0 0.00 0.19 0.19 26 1018.7
20260506201802 61 306 1.0 6.0 0.00 0.19 0.19 31 1018.9
20260506200902 60 306 2.0 6.0 0.00 0.19 0.19 34 1018.8
20260506200004 59 299 2.0 7.0 0.00 0.19 0.19 30 1018.7
20260506195424 59 300 2.0 7.0 0.00 0.19 0.19 27 1018.7
20260506194503 61 338 1.0 3.0 0.00 0.19 0.19 30 1018.8
20260506193602 60 65 1.0 6.0 0.00 0.19 0.19 33 1018.9
20260506192702 59 300 1.0 5.0 0.00 0.19 0.19 31 1018.9
20260506191802 60 298 1.0 4.0 0.00 0.19 0.19 30 1018.8
20260506190902 62 134 1.0 5.0 0.00 0.19 0.19 30 1018.9
20260506190024 61 134 1.0 6.0 0.00 0.19 0.19 33 1018.9
20260506185402 60 132 0.0 3.0 0.00 0.19 0.19 35 1018.9
20260506184503 58 357 1.0 4.0 0.00 0.19 0.19 36 1018.9
20260506183603 56 308 2.0 6.0 0.00 0.19 0.19 35 1018.9
20260506182702 57 313 2.0 6.0 0.00 0.19 0.19 37 1018.9
20260506181803 57 301 2.0 5.0 0.00 0.19 0.19 34 1018.8
20260506180902 59 351 1.0 4.0 0.00 0.19 0.19 36 1018.9
20260506180004 58 93 0.0 4.0 0.00 0.19 0.19 36 1018.8
20260506175402 57 355 0.0 2.0 0.00 0.19 0.19 39 1018.8
20260506174503 57 7 0.0 4.0 0.00 0.19 0.19 40 1018.7
20260506173602 56 32 1.0 5.0 0.00 0.19 0.19 42 1018.7
20260506172702 55 338 0.0 3.0 0.00 0.19 0.19 42 1018.6
20260506171802 54 318 1.0 4.0 0.00 0.19 0.19 42 1018.6
20260506170902 53 299 2.0 6.0 0.00 0.19 0.19 40 1018.4
20260506170003 54 22 0.0 2.0 0.00 0.19 0.19 44 1018.4
20260506165402 53 304 1.0 4.0 0.00 0.19 0.19 46 1018.3
20260506164503 53 309 1.0 5.0 0.00 0.19 0.19 45 1018.2
20260506163602 54 62 1.0 4.0 0.00 0.19 0.19 44 1018.1
20260506162703 54 11 0.0 2.0 0.00 0.19 0.19 48 1018.0
20260506161802 53 358 0.0 2.0 0.00 0.19 0.19 52 1017.9
20260506160902 52 43 0.0 4.0 0.00 0.19 0.19 50 1017.9
20260506160003 51 306 0.0 3.0 0.00 0.20 0.19 48 1017.8
20260506155402 51 96 0.0 4.0 0.00 0.20 0.19 48 1017.7
20260506154503 50 299 1.0 6.0 0.00 0.21 0.19 50 1017.6
20260506153602 50 298 1.0 4.0 0.00 0.23 0.19 50 1017.5
20260506152702 50 297 0.0 3.0 0.00 0.25 0.19 48 1017.4
20260506151802 49 296 1.0 3.0 0.00 0.27 0.19 49 1017.5
20260506150902 49 281 0.0 1.0 0.00 0.29 0.19 54 1017.3
20260506150003 48 310 1.0 3.0 0.00 0.32 0.19 56 1017.1
20260506145402 48 310 1.0 3.0 0.00 0.33 0.19 56 1017.1
20260506144503 47 305 0.0 3.0 0.00 0.35 0.19 60 1017.0
20260506143603 46 294 0.0 2.0 0.00 0.37 0.19 63 1017.0
20260506142702 46 329 0.0 1.0 0.00 0.38 0.19 69 1017.0
20260506141802 45 280 0.0 1.0 0.00 0.38 0.19 70 1016.8
20260506140923 45 280 0.0 1.0 0.00 0.38 0.19 72 1016.7
20260506140024 44 302 0.0 1.0 0.00 0.39 0.19 73 1016.6
20260506135402 43 303 0.0 2.0 0.00 0.40 0.19 73 1016.5
20260506134524 42 304 0.0 1.0 0.00 0.41 0.19 75 1016.4
20260506133603 42 0 0.0 0.0 0.00 0.42 0.19 76 1016.4
20260506132702 42 29 0.0 1.0 0.00 0.42 0.19 78 1016.3
20260506131802 42 70 0.0 2.0 0.00 0.43 0.19 82 1016.4
20260506130902 42 108 0.0 1.0 0.00 0.43 0.19 81 1016.2
20260506130024 43 0 0.0 0.0 0.00 0.43 0.19 78 1015.9
20260506125402 43 0 0.0 0.0 0.00 0.43 0.19 77 1015.8
20260506124524 44 0 0.0 0.0 0.00 0.44 0.19 76 1015.7
20260506123602 44 120 0.0 2.0 0.00 0.44 0.19 72 1015.5
20260506122702 44 120 0.0 2.0 0.00 0.44 0.19 67 1015.3
20260506121802 44 131 0.0 1.0 0.00 0.44 0.19 61 1015.1
20260506120902 45 53 0.0 2.0 0.00 0.44 0.19 60 1014.8
20260506120003 45 27 1.0 10.0 0.00 0.44 0.19 61 1015.0
20260506115402 45 49 1.0 10.0 0.00 0.44 0.19 60 1015.0
20260506114503 45 43 2.0 9.0 0.00 0.44 0.19 60 1014.9
20260506113603 44 54 2.0 15.0 0.00 0.44 0.19 62 1015.0
20260506112702 44 46 2.0 11.0 0.00 0.44 0.19 64 1014.8